User: anonymous   Login
Location: Caltech
(34.1382°N, 118.1253°W)
Time: 19:44:43
(UTC-07:00)
Language:

Cosmos 1408 Rocket - Orbit

View from above orbital plane
View from above orbital plane
View from above satellite
View from above satellite

Ground track
Ground track

The orbit data is extracted from the following two-line orbital elements,

1 13553U 82092B   16181.60746369  .00000087  00000-0  74325-5 0  9997
2 13553  82.5676 202.5552 0022725 127.3540 353.4064 14.84062091824749
Epoch (UTC): 29 June 2016 14:34:44
Eccentricity: 0.0022725
inclination: 82.5676°
perigee height: 600 km
apogee height: 632 km
right ascension of ascending node: 202.5552°
argument of perigee: 127.3540°
revolutions per day: 14.84062091
mean anomaly at epoch: 353.4064°
orbit number at epoch: 82474

The dashed part of the orbit path shows where the satellite is in the earth's shadow,  

DLR